STARLINK-32577, 62044

Orbit data source: Space-Track

STARLINK-32577, 62044 is a payload satellite owned by SpaceX/Seattle (US) in LEO that was launched on Thu, 21 Nov 2024 UTC via an FALCON 9 launch vehicle from the Air Force Eastern Test Range (AFETR). Payload-class satellites include a variety of spacecraft equipped with specific instruments for various scientific and technological missions. These include communications satellites like Starlink; space stations such as the ISS; scientific satellites like the Hubble; Earth observation satellites from companies like Planet Labs, Umbra, and HawkEye 360; GPS; miniature CubeSats for education and research; and military/defense satellites.

Loading next visibility...
Identifier
62044, 2024-216N
Orbit
LEO
Last TLE update
16 hours ago
Origin
Manufacturer
SpaceX/Seattle
Mission
Operational Commercial Communications
Bus & Motor
STARLINK V2M, Unknown motor
Mass
730 kg wet, ~700 kg dry
Launch date (UTC)
2024-11-21 (6 months ago)
Launch vehicle
FALCON 9
Launch site
Air Force Eastern Test Range (AFETR)
Object type
Payload
Rocket body
Debris
Shape & HBR
Box + 2 Pan, 29 m
Radar Cross Section
36.964 m², Large (>1 m²)

Expand to show TLE details & history

TLE from 16 hours ago
0 STARLINK-32577
1 62044U 24216N   25128.59643648  .00000507  00000-0  27955-4 0  9998
2 62044  42.9970 186.4187 0000879 273.9471  86.1280 15.27576168 27159
Epoch: 2025-05-08T14:18Z
Definitive object data (Epoch: 2025-05-08T14:18:52.111Z)
Latitude
-0.00004°
Longitude
105.03687°
Altitude
482.795 km
Speed
7.626 km/s
True Right ascension
12h 25m 40s
True Declination
0° 00' 00"
Sunlit
Object was in full shadow at TLE epoch
Visualization TLE readout
Latitude
-26.05458°
Longitude
69.95346°
Altitude
489.141 km
Speed
7.621 km/s
Apparent Right ascension
06h 48m 38s
Apparent Declination
-52° 03' 59"
Sunlit
Object is in daylight
Visualization observer readout
Local Sidereal Time
13:58:44
Azimuth
230.33° WSW
Elevation
-40.397°
Doppler factor
1
Orbital elements
Apogee altitude
485.61 km
Perigee altitude
484.403 km
Semi-major axis
6,863.143 km
Eccentricity
0.0000879
Inclination
42.997°
RAAN
186.4187°
Arg. of periapsis
273.9471°
True anomaly
86.13805°
Mean anomaly
86.128°
Eccentric anomaly
86.13302°
Mean motion
3.81732 °/min
BSTAR
0.000027955
Orbital period
94.31 mins
Loading maneuver chart data...
Loading SW <> Apogee altitude chart data...
Loading historical data...
Loading historical data...
Loading historical data...
Loading historical data...
Loading historical data...
Loading historical data...
Loading historical data...

STARLINK-32577 Visibility forecast

Observer location: undefined°, undefined°

Span
Click to sort rows by Start time (UTC) header in descending order
Start Az.
Max El. time (UTC)
Max El. Az.
Max El.
End time (UTC)
End Az.
4 mins2025-05-09 06:10:59.998Z181.26° SSW2025-05-09 06:12:59.998Z148.839° SSE15.292°2025-05-09 06:14:59.998Z112.463° ESE
5 mins2025-05-09 07:49:59.998Z235.328° WSW2025-05-09 07:51:59.998Z133.876° SE42.974°2025-05-09 07:54:59.998Z75.131° E
5 mins2025-05-09 09:28:59.998Z287.828° WNW2025-05-09 09:30:59.998Z3.077° NNE38.661°2025-05-09 09:33:59.998Z71.271° E
5 mins2025-05-09 11:07:59.998Z294.621° NW2025-05-09 11:09:59.998Z1.101° NNE42.762°2025-05-09 11:12:59.998Z95.023° ESE
5 mins2025-05-09 12:46:59.998Z263.487° W2025-05-09 12:48:59.998Z206.784° SW30.747°2025-05-09 12:51:59.998Z144.303° SSE
|